Location: Northam
(31.6525°S, 116.6655°E)
Time: 18:57:20
(UTC+08:00)

Vanguard 2 Rocket - All Passes

Search period start: 15 June 2021 00:00
Search period end: 25 June 2021 00:00
Orbit: 554 x 3325 km, 32.9° (Epoch: 14 June)

Date Brightness Start Highest point End Pass type
(mag) Time Alt. Az. Time Alt. Az. Time Alt. Az.
15 Jun - 07:31:07 10° NNW 07:35:00 25° NE 07:40:25 10° E daylight
15 Jun - 09:41:42 10° WNW 09:47:37 83° NNE 09:58:22 10° E daylight
15 Jun - 11:54:03 10° W 12:02:30 85° S 12:18:01 10° E daylight
15 Jun - 14:07:10 10° WSW 14:18:49 69° NNW 14:37:41 10° ENE daylight
15 Jun - 16:22:22 10° W 16:35:58 37° NW 16:53:21 10° NNE daylight
15 Jun - 18:48:06 10° WNW 18:53:02 11° NW 18:58:06 10° NNW visible
16 Jun - 06:34:16 10° NNE 06:36:00 12° NE 06:37:57 10° ENE visible
16 Jun - 08:42:53 10° WNW 08:47:54 64° NNE 08:56:25 10° ESE daylight
16 Jun - 10:54:51 10° W 11:01:55 83° S 11:15:02 10° E daylight
16 Jun - 13:07:33 10° WSW 13:17:32 79° NNW 13:35:01 10° ENE daylight
16 Jun - 15:21:33 10° W 15:34:15 46° NNW 15:52:25 10° NE daylight
16 Jun - 17:40:51 10° WNW 17:51:23 19° NW 18:03:07 10° N visible
17 Jun - 07:44:19 10° NW 07:48:33 41° NNE 07:54:55 10° E daylight
17 Jun - 09:55:48 10° W 10:01:43 85° S 10:12:28 10° E daylight
17 Jun - 12:08:11 10° W 12:16:37 88° N 12:32:05 10° ENE daylight
17 Jun - 14:21:23 10° W 14:32:44 56° NNW 14:50:44 10° NE daylight
17 Jun - 16:37:48 10° W 16:49:42 26° NW 17:04:23 10° N daylight
18 Jun - 06:46:07 10° NNW 06:49:27 23° NE 06:53:39 10° E visible
18 Jun - 08:56:50 10° WNW 09:01:52 84° NNE 09:10:30 10° E daylight
18 Jun - 11:09:00 10° W 11:16:04 85° S 11:29:11 10° E daylight
18 Jun - 13:21:40 10° W 13:31:30 65° NNW 13:48:29 10° NE daylight
18 Jun - 15:36:22 10° W 15:48:05 34° NNW 16:04:14 10° NNE daylight
19 Jun - 05:49:15 10° NNE 05:50:23 11° NE 05:51:34 10° NE visible
19 Jun - 07:57:59 10° WNW 08:02:21 64° NNE 08:09:07 10° E daylight
19 Jun - 10:09:56 10° W 10:15:52 81° S 10:26:38 10° E daylight
19 Jun - 12:22:17 10° W 12:30:39 76° NNW 12:45:54 10° ENE daylight
19 Jun - 14:35:50 10° W 14:46:39 42° NNW 15:03:10 10° NE daylight
19 Jun - 16:54:57 10° WNW 17:03:37 16° NW 17:13:39 10° N daylight
20 Jun - 06:59:18 10° NW 07:03:07 39° NNE 07:08:12 10° E daylight
20 Jun - 09:10:56 10° W 09:15:59 83° S 09:24:37 10° E daylight
20 Jun - 11:23:07 10° W 11:30:10 86° NNW 11:43:15 10° ENE daylight
20 Jun - 13:35:56 10° W 13:45:29 51° NNW 14:01:27 10° NE daylight
20 Jun - 15:52:02 10° WNW 16:02:02 23° NW 16:14:58 10° N daylight
21 Jun - 06:00:54 10° NNW 06:04:00 22° NNE 06:07:30 10° E visible
21 Jun - 08:11:58 10° WNW 08:16:22 86° NNE 08:23:13 10° E daylight
21 Jun - 10:24:04 10° W 10:30:01 85° S 10:40:47 10° E daylight
21 Jun - 12:36:27 10° W 12:44:40 60° NNW 12:59:20 10° NE daylight
21 Jun - 14:50:49 10° W 15:00:39 30° NNW 15:14:46 10° NNE daylight
22 Jun - 05:03:23 10° N 05:04:49 12° NNE 05:06:16 10° NE visible
22 Jun - 07:13:00 10° WNW 07:17:00 64° NNE 07:22:25 10° E daylight
22 Jun - 09:25:05 10° W 09:30:08 80° S 09:38:47 10° E daylight
22 Jun - 11:37:13 10° W 11:44:13 71° NNW 11:57:03 10° ENE daylight
22 Jun - 13:50:30 10° W 13:59:31 37° NNW 14:13:45 10° NNE daylight
22 Jun - 16:10:02 10° WNW 16:16:11 13° NW 16:23:16 10° N daylight
23 Jun - 06:14:06 10° NW 06:17:48 39° NNE 06:22:03 10° E visible
23 Jun - 08:26:05 10° W 08:30:29 80° S 08:37:20 10° E daylight
23 Jun - 10:38:10 10° W 10:44:07 83° NNW 10:54:50 10° ENE daylight
23 Jun - 12:50:46 10° W 12:58:44 45° NNW 13:12:13 10° NE daylight
23 Jun - 15:06:52 10° WNW 15:14:47 19° NNW 15:25:04 10° N daylight
24 Jun - 05:15:19 10° NNW 05:18:38 23° NNE 05:21:54 10° E visible
24 Jun - 07:27:01 10° WNW 07:31:03 89° NNE 07:36:32 10° E daylight
24 Jun - 09:39:12 10° W 09:44:17 86° S 09:52:56 10° E daylight
24 Jun - 11:51:25 10° W 11:58:17 54° NNW 12:10:26 10° NE daylight
24 Jun - 14:05:42 10° WNW 14:13:40 25° NNW 14:25:08 10° NNE daylight
